Location: Helsinki
(60.1699°N, 24.9384°E)
Time: 19:52:27
(UTC+02:00)

Transit 2A Rocket - Pass Details

Date: 30 September 2023
Orbit: 593 x 903 km, 66.7° (Epoch: 28 November)

Event Time Altitude Azimuth Distance (km) Brightness Sun altitude
Rises 20:24:57 0° 300° (WNW) 3,079 9.8 -11.7°
Reaches altitude 10° 20:27:27 10° 306° (NW) 2,112 8.5 -12.0°
Maximum altitude 20:32:02 48° 21° (NNE) 834 5.2 -12.6°
Enters shadow 20:35:03 19° 90° (E) 1,499 5.9 -12.9°
Drops below altitude 10° 20:36:20 10° 97° (E) 1,973 - -13.1°
Sets 20:38:36 0° 103° (ESE) 2,854 - -13.3°
